星链-5629 (STARLINK-5629 )

导读 | 豆包AI

STARLINK-5629是美国SpaceX公司星链星座中的一颗低轨互联网卫星,于2023年1月31日由猎鹰9号火箭发射入轨。星链计划旨在构建全球覆盖的低轨卫星互联网,为全球用户提供高速低延迟宽带服务。STARLINK-5629遵循星链卫星设计标准,搭载相控阵天线与霍尔推进系统,运行在近地轨道,参与全球星座组网,助力实现泛在互联网接入,目前在轨正常服役,属于星链大规模组网中的一员。

基本信息
目录编号:
55419
目录名称:
STARLINK-5629
国际标识:
2023-014AE
轨道中心:
EARTH
卫星名称:
星链-5629
卫星全名:
星链-5629 (STARLINK-5629 )
卫星状态:
在轨 (已飞行1139 天)
发射日期:
2023-01-31 UTC
国别 :
美国 (US)
星等 :
--
轨道信息
数据来源 国际轨道数据 AOE轨道数据
星历时间 2026-03-15T13:30:42+0800
10小时前
查看轨道信息
2026-03-10T06:00:00+0800
5天前
查看轨道信息
半长轴 6950.184km 6950.233km
偏心率 0.000307 0.0003493
轨道倾角 69.999° 70.000°
近地点辐角 272.262° 269.818°
升交点赤经 70.425° 83.823°
平近点角 87.819° 240.190°
近地点 569.913km 569.668km
远地点 574.181km 574.524km
周期 96.107分钟 96.108分钟
每日圈数 14.983329 14.983172
详细信息
固有亮度:
5
最大亮度:
2.5
卫星平台:
Starlink v1.5
覆盖范围:
全球
运营商:
太空探索技术公司
运营商所在国:
美国
制造商(研发单位):
太空探索技术公司
制造商所在国:
美国
使用方式:
暂无
卫星简介
星链(Starlink)计划是由太空探索技术公司(SpaceX)提出的一个巨型低轨卫星互联网星座项目,计划在2019年至2024年间在太空搭建由约1.2万颗卫星组成的“星链”网络,其中1584颗将部署在地球上空550千米处的近地轨道,并从2020年开始工作。该卫星仍在工作。
2D轨道图
3D轨道图
轨道高度分析图
轨道倾角分析图
轨道综合分析图
查看轨道综合分析图